Regional Weather Roundup
Issued by NWS New Orleans/Baton Rouge, LA

Home | Current Version | Previous Version | Text Only | Print | Product List | Glossary On
Versions: 1 2 3 4 5 6 7 8 9 10 11 12 13 14 15 16 17 18 19 20 21 22 23 24 25 26 27 28 29 30 31 32 33 34 35 36 37 38 39 40 41 42 43 44 45 46 47 48 49 50
658
ASUS44 KLIX 190805
RWRLIX
NEW ORLEANS REGIONAL WEATHER ROUNDUP
NATIONAL WEATHER SERVICE NEW ORLEANS LA
300 AM CDT FRI SEP 19 2014

NOTE: "FAIR" INDICATES FEW OR NO CLOUDS BELOW 12,000 FEET WITH NO
      SIGNIFICANT WEATHER AND/OR OBSTRUCTIONS TO VISIBILITY.
      SKY/WX - SKY CONDITION AND SIGNIFICANT WEATHER.
      TMP - AIR TEMPERATURE.     DP    - DEWPOINT TEMPERATURE.
      RH  - RELATIVE HUMIDITY.   PRES  - PRESSURE.
      HI  - HEAT INDEX.          WCI   - WIND CHILL INDEX.

*  THESE STATIONS ARE NOT NWS OR FAA STATIONS AND ARE NOT UNDER
   NWS QUALITY CONTROL.

LAZ038-040-048-061>063-065>067-069-190900-
SOUTHEAST LOUISIANA

CITY           SKY/WX    TMP DP  RH WIND       PRES   REMARKS
N.O. AUDUBON     N/A     73  70  90 MISG        N/A
N.O. INTL ARPT CLOUDY    74  68  81 SW5       29.90F
N.O. LAKEFRONT CLOUDY    74  70  87 E8        29.91F
N.O. DOWNTOWN* CLOUDY    73  66  78 SE6       29.90F
SLIDELL        CLOUDY    72  70  93 CALM      29.91F
BATON ROUGE    CLOUDY    72  70  93 NE3       29.91F
BOOTHVILLE     CLOUDY    73  68  84 E7        29.93S
BELLE CHASSE   CLOUDY    73  68  84 E8        29.90F
BOGALUSA*        N/A     73  69  87 CALM      29.94F
GALLIANO*      NOT AVBL
NEW ROADS*     CLOUDY    72  71  96 CALM      29.91F
GONZALES*      RAIN      73  73 100 CALM      29.91S
HAMMOND*       CLOUDY    72  68  88 CALM      29.93F
HOUMA*         LGT RAIN  74  67  77 E13       29.91S
PORT FOURCHON* CLOUDY    75  73  94 NE16G23   29.93S FOG

$$

MSZ070-080>082-190900-
SOUTHERN MISSISSIPPI

CITY           SKY/WX    TMP DP  RH WIND       PRES   REMARKS
MCCOMB         CLOUDY    71  69  93 CALM      29.93F
GULFPORT       LGT RAIN  72  69  90 CALM      29.93S
BILOXI         LGT RAIN  72  69  89 E6        29.94R
PASCAGOULA     CLOUDY    70  68  93 S6        29.94R

$$

COASTAL OBSERVATIONS
LAKE AND NEARSHORE STATIONS

STATION/POSITION TIME  TEMP    WIND        PRES    WAVE
                       AIR SEA DIR/SP/G            HT/PER
                 (UTC) (F)     (DEG/KT/KT) (MB)    (FT/S)
PASCAGOULA       0800   74      20/  4/  6 1013.3
WAVELAND YACHT   0800   76      60/  6/  7 1012.8
GRAND ISLE       0800   74 87   90/ 11/ 16 1013.2
SOUTHWEST PASS   0800   76 90  100/ 14/ 16 1012.8
NEW CANAL        0800   73 82  160/  2/  3 1012.9
SHELL BEACH      0800   75 80  120/ 13/ 17 1012.9

OFFSHORE STATIONS

STATION/POSITION TIME  TEMP    WIND        PRES    WAVE
                       AIR SEA DIR/SP/G            HT/PER
                 (UTC) (F)     (DEG/KT/KT) (MB)    (FT/S)
64 S DAUPHIN ISL 0654   76 85  160/ 12/ 16 1013.8    1/ 3

$$




USA.gov is the U.S. government's official web portal to all federal, state and local government web resources and services.